STARLINK-11161, 60124

Orbit data source: Space-Track

STARLINK-11161, 60124 is a payload satellite owned by SpaceX/Seattle (US) in LEO that was launched on Mon, 24 Jun 2024 UTC via an FALCON 9 launch vehicle from the Air Force Western Test Range (AFWTR). Payload-class satellites include a variety of spacecraft equipped with specific instruments for various scientific and technological missions. These include communications satellites like Starlink; space stations such as the ISS; scientific satellites like the Hubble; Earth observation satellites from companies like Planet Labs, Umbra, and HawkEye 360; GPS; miniature CubeSats for education and research; and military/defense satellites.

Loading next visibility...
Identifier
60124, 2024-118M
Orbit
LEO
Last TLE update
11 hours ago
Origin
Manufacturer
SpaceX/Seattle
Mission
Operational Commercial Communications
Bus & Motor
STARLINK V2M, Unknown motor
Mass
730 kg wet, ~700 kg dry
Launch date (UTC)
2024-06-24 (1 year ago)
Launch vehicle
FALCON 9
Launch site
Air Force Western Test Range (AFWTR)
Object type
Payload
Rocket body
Debris
Shape & HBR
Box + 2 Pan, 29 m
Radar Cross Section
33.884 m², Large (>1 m²)

Expand to show TLE details & history

TLE from 11 hours ago
0 STARLINK-11161
1 60124U 24118M   25181.97542147 -.00000804  00000-0 -17825-5 0  9997
2 60124  53.1595  22.4938 0000754  82.4493 277.6610 15.69712088 59490
Epoch: 2025-06-30T23:24Z
TLE epoch observation values (Epoch: 2025-06-30T23:24:36.415Z)
Latitude
-0.00004°
Longitude
112.06452°
Altitude
360.568 km
Speed
7.694 km/s
True Right ascension
01h 29m 58s
True Declination
0° 00' 00"
Sunlit
Object was in daylight at epoch
Visualization orbit readout
Latitude
46.88036°
Longitude
-122.94233°
Altitude
364.379 km
Speed
7.697 km/s
Apparent Right ascension
10h 02m 19s
Apparent Declination
4° 58' 44"
Sunlit
Object is in daylight
Visualization observer readout
Local Sidereal Time
22:14:00
Azimuth
4.114° NNE
Elevation
-45.025°
Doppler factor
1
Orbital elements
Apogee altitude
360.49 km
Perigee altitude
359.473 km
Semi-major axis
6,738.119 km
Eccentricity
0.00008
Inclination
53.1595°
RAAN
22.4938°
Arg. of periapsis
82.4493°
True anomaly
Unknown
Mean anomaly
277.661°
Eccentric anomaly
Unknown
Mean motion
3.92406 °/min
Orbital period
91.74 mins
BSTAR
-0.0000017825
Loading maneuver chart data...
Loading SW <> Apogee altitude chart data...
Loading historical data...
Loading historical data...
Loading historical data...
Loading historical data...
Loading historical data...
Loading historical data...
Loading historical data...

STARLINK-11161 Visibility forecast

Observer location: undefined°, undefined°

Span
Click to sort rows by Start time (UTC) header in descending order
Start Az.
Max El. time (UTC)
Max El. Az.
Max El.
End time (UTC)
End Az.
4 mins2025-07-01 16:25:31.562Z247.683° W2025-07-01 16:27:31.562Z350.722° N39.317°2025-07-01 16:29:31.562Z40.459° NE
4 mins2025-07-01 22:50:31.562Z313.874° NW2025-07-01 22:51:31.562Z322.989° NNW40.712°2025-07-01 22:54:31.562Z127.908° SE
|